Asyut, Egypt

12:17 PM EET on May 24, 2017 (GMT +0200)
Asyut

Weather History for HEAT - January, 2013

Change the Weather History Date:

Monday, January 14, 2013

  Actual Average Record
Temperature  
Mean Temperature 56 °F -  
Max Temperature 71 °F 69 °F - ()
Min Temperature 42 °F 41 °F - ()
Degree Days  
Heating Degree Days 8    
Growing Degree Days 6 (Base 50)    
Moisture  
Dew Point 44 °F    
Average Humidity 70    
Maximum Humidity 100    
Minimum Humidity 27    
Precipitation  
Precipitation 0.00 in 0.00 in - ()
Sea Level Pressure  
Sea Level Pressure 30.18 in    
Wind  
Wind Speed 7 mph ()    
Max Wind Speed 13 mph    
Max Gust Speed -    
Visibility 4.9 miles    
Events      
T = Trace of Precipitation, MM = Missing Value Source: Averaged Metar Reports

Daily Weather History Graph

Daily Weather History Graph

Search for Another Location

Airport or City:

Trip Planner

Search our weather history database for the weather conditions in past years. The results will help you decide how hot, cold, wet, or windy it might be!

Date:

Astronomy

Jan. 14, 2013 Rise Set
Actual Time 6:46 AM EET 5:23 PM EET
Civil Twilight 6:21 AM EET 5:48 PM EET
Nautical Twilight 5:53 AM EET 6:17 PM EET
Astronomical Twilight 5:24 AM EET 6:45 PM EET
Moon 8:28 AM EET (1/14) 8:24 PM EET (1/14)
Length of Visible Light 11h 26m
Length of Day
10h 36m
Waxing Crescent, 9% of the Moon is Illuminated
Jan 14
Waxing Crescent
Jan 19
First Quarter
Jan 27
Full
Feb 3
Last Quarter
Feb 10
New

Hourly Weather History & Observations

Time (EET) Temp. Windchill Dew Point Humidity Pressure Visibility Wind Dir Wind Speed Gust Speed Precip Events Conditions
12:00 AM 50.0 °F - 44.6 °F 82% 30.18 in - NNW 8.1 mph - N/A   Clear
1:00 AM 48.2 °F - 44.6 °F 87% 30.18 in - North 6.9 mph - N/A   Clear
2:00 AM 49 °F - 44 °F 79% 30.19 in 6 mi North 5.8 mph - -  
2:00 AM 50.0 °F - 44.6 °F 82% 30.18 in - North 5.8 mph - N/A   Clear
3:00 AM 50.0 °F - 44.6 °F 82% 30.15 in - North 5.8 mph - N/A   Clear
4:00 AM 48.2 °F - 44.6 °F 87% 30.18 in - WNW 2.3 mph - N/A   Clear
5:00 AM 42.8 °F 41.1 °F 42.8 °F 100% 30.18 in 4.3 mi NW 3.5 mph - N/A   Unknown
6:00 AM 42.8 °F 40.1 °F 42.8 °F 100% 30.18 in 4.3 mi NW 4.6 mph - N/A   Unknown
7:00 AM 42.8 °F 41.1 °F 42.8 °F 100% 30.21 in 4.3 mi NW 3.5 mph - N/A   Unknown
8:00 AM 44 °F - 42 °F 90% 30.25 in 4 mi NNW 5.8 mph - -   Mist
8:00 AM 42.8 °F 39.3 °F 42.8 °F 100% 30.21 in 4.3 mi NNW 5.8 mph - N/A   Unknown
9:00 AM 50.0 °F - 42.8 °F 76% 30.21 in - NW 5.8 mph - N/A   Clear
10:00 AM 55.4 °F - 44.6 °F 67% 30.24 in - NNW 9.2 mph - N/A   Clear
11:00 AM 59.0 °F - 46.4 °F 63% 30.21 in - NNW 10.4 mph - N/A   Clear
12:00 PM 62.6 °F - 46.4 °F 55% 30.18 in - North 11.5 mph - N/A   Clear
1:00 PM 66.2 °F - 42.8 °F 43% 30.15 in - North 11.5 mph - N/A   Clear
2:00 PM 68 °F - 42 °F 27% 30.12 in 6 mi North 12.7 mph - -  
2:00 PM 68.0 °F - 41.0 °F 37% 30.15 in - North 12.7 mph - N/A   Clear
3:00 PM 69.8 °F - 39.2 °F 33% 30.15 in - North 10.4 mph - N/A   Clear
4:00 PM 71.6 °F - 39.2 °F 31% 30.15 in - North 9.2 mph - N/A   Clear
5:00 PM 69.8 °F - 37.4 °F 31% 30.15 in - North 8.1 mph - N/A   Clear
6:00 PM 66.2 °F - 37.4 °F 35% 30.18 in - WNW 6.9 mph - N/A   Clear
8:00 PM 57 °F - 51 °F 72% 30.19 in 6 mi NW 12.7 mph - -  
8:00 PM 57.2 °F - 50.0 °F 77% 30.18 in - NW 12.7 mph - N/A   Clear
9:00 PM 53.6 °F - 50.0 °F 88% 30.18 in - West 6.9 mph - N/A   Clear
10:00 PM 51.8 °F - 48.2 °F 88% 30.18 in - WNW 6.9 mph - N/A   Clear
11:00 PM 51.8 °F - 48.2 °F 88% 30.18 in - WNW 8.1 mph - N/A   Clear